TimePDT,TemperatureF,Dew PointF,Humidity,Sea Level PressureIn,VisibilityMPH,Wind Direction,Wind SpeedMPH,Gust SpeedMPH,PrecipitationIn,Events,Conditions,WindDirDegrees,DateUTC
12:53 AM,61.0,51.1,70,30.17,10.0,SE,8.1,-,0.00,Rain,Light Rain,130,2014-03-09 08:53:00
1:53 AM,59.0,53.1,81,30.17,10.0,NE,5.8,-,0.00,Rain,Light Rain,50,2014-03-09 09:53:00
3:53 AM,60.1,53.1,78,30.17,10.0,NNW,3.5,-,0.00,,Overcast,330,2014-03-09 10:53:00
4:53 AM,57.9,50.0,75,30.14,10.0,ENE,8.1,-,N/A,,Mostly Cloudy,70,2014-03-09 11:53:00
5:53 AM,60.1,50.0,69,30.14,10.0,SW,3.5,-,N/A,,Mostly Cloudy,230,2014-03-09 12:53:00
6:53 AM,55.0,48.9,80,30.15,10.0,Calm,Calm,-,N/A,,Mostly Cloudy,0,2014-03-09 13:53:00
7:53 AM,57.0,51.1,81,30.15,10.0,SW,3.5,-,N/A,,Overcast,220,2014-03-09 14:53:00
8:53 AM,59.0,53.1,81,30.16,10.0,ESE,4.6,-,N/A,,Mostly Cloudy,120,2014-03-09 15:53:00
9:53 AM,62.1,51.1,67,30.17,10.0,ESE,3.5,-,N/A,,Overcast,120,2014-03-09 16:53:00
10:53 AM,64.0,53.1,67,30.17,10.0,Calm,Calm,-,N/A,,Mostly Cloudy,0,2014-03-09 17:53:00
11:53 AM,64.0,54.0,70,30.16,10.0,WSW,5.8,-,N/A,,Mostly Cloudy,240,2014-03-09 18:53:00
12:53 PM,66.0,51.1,59,30.14,10.0,West,5.8,-,N/A,,Mostly Cloudy,270,2014-03-09 19:53:00
1:53 PM,66.0,52.0,60,30.13,10.0,WNW,8.1,-,N/A,,Mostly Cloudy,300,2014-03-09 20:53:00
2:53 PM,70.0,53.1,55,30.11,10.0,WNW,9.2,-,N/A,,Mostly Cloudy,300,2014-03-09 21:53:00
3:53 PM,68.0,54.0,61,30.09,10.0,NW,9.2,-,N/A,,Mostly Cloudy,310,2014-03-09 22:53:00
4:53 PM,69.1,54.0,58,30.09,10.0,WNW,11.5,-,N/A,,Mostly Cloudy,300,2014-03-09 23:53:00
5:53 PM,68.0,53.1,59,30.07,10.0,NW,9.2,-,N/A,,Mostly Cloudy,310,2014-03-10 00:53:00
6:53 PM,64.0,52.0,65,30.09,10.0,WNW,10.4,-,N/A,,Mostly Cloudy,300,2014-03-10 01:53:00
7:53 PM,62.1,50.0,65,30.09,10.0,NW,5.8,-,N/A,,Mostly Cloudy,310,2014-03-10 02:53:00
8:53 PM,61.0,48.9,64,30.11,10.0,NNW,4.6,-,N/A,,Mostly Cloudy,330,2014-03-10 03:53:00
9:53 PM,62.1,50.0,65,30.12,10.0,West,4.6,-,N/A,,Mostly Cloudy,260,2014-03-10 04:53:00
10:53 PM,60.1,48.0,64,30.13,10.0,WNW,8.1,-,N/A,,Mostly Cloudy,290,2014-03-10 05:53:00
11:53 PM,60.1,48.0,64,30.13,10.0,West,4.6,-,N/A,,Overcast,280,2014-03-10 06:53:00
12:53 AM,60.1,48.0,64,30.12,10.0,Calm,Calm,-,N/A,,Overcast,0,2014-03-10 07:53:00